Regional Weather Roundup
Issued by NWS Cleveland, OH

Home | Current Version | Previous Version | Graphics & Text | Print | Product List | Glossary On
Versions: 1 2 3 4 5 6 7 8 9 10 11 12 13 14 15 16 17 18 19 20 21 22 23 24 25 26 27 28 29 30 31 32 33 34 35 36 37 38 39 40 41 42 43 44 45 46 47 48 49 50
000
ASUS41 KCLE 302300
RWRCLE
OHIO REGIONAL WEATHER ROUNDUP
NATIONAL WEATHER SERVICE WILMINGTON, OH
700 PM EDT THU JUL 30 2015

NOTE: "FAIR" INDICATES FEW OR NO CLOUDS BELOW 12,000 FEET WITH NO
SIGNIFICANT WEATHER AND/OR OBSTRUCTIONS TO VISIBILITY.

OHZ001>008-015>018-024>027-034-035-043-044-310000-
   NORTHWEST OHIO

CITY           SKY/WX    TMP DP  RH WIND       PRES   REMARKS
DEFIANCE       SUNNY     84  55  36 NW13      30.00S
FINDLAY        SUNNY     84  56  38 NW12      29.98F
TOLEDO EXPRESS SUNNY     82  56  40 W12       29.97S
TOLEDO EXEC    SUNNY     84  54  35 W16G28    29.97S
LIMA           SUNNY     81  54  39 NW12      30.01F
$$

OHZ009>014-019>023-028>033-038-089-310000-
   NORTHEAST OHIO

CITY           SKY/WX    TMP DP  RH WIND       PRES   REMARKS
CLE-HOPKINS    MOSUNNY   83  57  41 W17       29.97S
CLE-LAKEFRONT  SUNNY     81  65  58 W10       29.94S
CUY CO. ARPT   SUNNY     82  61  47 NW14G23   29.96F
LORAIN-ELYRIA  SUNNY     81  57  43 W15G22    29.97S
ASHTABULA      SUNNY     80  54  40 W17G23    29.95S
AKRON-CANTON   MOSUNNY   82  57  42 W13       29.97S
WOOSTER        NOT AVBL
MANSFIELD      SUNNY     81  55  40 W8G20     30.00S
YOUNGSTOWN     MOSUNNY   81  54  39 NW10      29.95F
$$

OHZ042-051>053-060>062-070>072-077>081-310000-
  SOUTHWEST OHIO

CITY           SKY/WX    TMP DP  RH WIND       PRES   REMARKS
CINC-COVINGTON MOSUNNY   82  54  37 NW14G20   30.04F
CINC-LUNKEN    SUNNY     82  57  42 NW9G20    30.03S
HAMILTON       SUNNY     84  59  42 NW14      30.04S
DAYTON         NOT AVBL
WRIGHT-PAT AFB NOT AVBL
DAYTON GENERAL SUNNY     82  56  40 W12       30.03S
WILMINGTON     SUNNY     82  57  42 NW12      30.02F
$$

OHZ036-037-039>041-045>050-054>059-063>069-073>076-082>088-310000-
  CENTRAL AND SOUTHEAST OHIO

CITY           SKY/WX    TMP DP  RH WIND       PRES   REMARKS
COLUMBUS       MOSUNNY   82  58  43 W15       29.99S
OSU AIRPORT    SUNNY     81  60  48 W12G22    30.00F
BOLTON FIELD   SUNNY     81  59  47 NW9       30.01F
RICKENBACK AFB NOT AVBL
NEWARK         SUNNY     83  58  42 NW10      29.99S
MARION         MOSUNNY   82  56  40 NW8       30.00S
LANCASTER      SUNNY     81  59  47 W7        30.00S
ZANESVILLE     SUNNY     82  56  40 NW10      29.98S
NEW PHILLY     MOSUNNY   81  60  48 VRB6G17   29.98S
$$



USA.gov is the U.S. government's official web portal to all federal, state and local government web resources and services.